GW4318 Weather Reports


Display with metric or nautical units.
time (UTC)temp
F
wind
direction
speed
MPH
gust
MPH
rain 1hr
in
rain 24hr
in
rain mn
in
humidity
%
barometer
mb
20260904182019 83 293 2.0 6.0 0.00 0.00 0.00 53 1008.7
20260904181019 82 337 1.0 3.0 0.00 0.00 0.00 54 1008.8
20260904180017 83 340 2.0 5.0 0.00 0.00 0.00 54 1008.8
20260904175017 83 219 1.0 3.0 0.00 0.00 0.00 56 1008.9
20260904174020 83 257 1.0 3.0 0.00 0.00 0.00 53 1008.8
20260904173020 82 257 2.0 4.0 0.00 0.00 0.00 56 1008.8
20260904172037 84 348 1.0 4.0 0.00 0.00 0.00 56 1008.9
20260904171017 83 299 2.0 4.0 0.00 0.00 0.00 58 1009.2
20260904170017 82 324 1.0 5.0 0.00 0.00 0.00 59 1009.4
20260904165038 82 343 1.0 4.0 0.00 0.00 0.00 60 1009.3
20260904164018 82 19 1.0 3.0 0.00 0.00 0.00 60 1009.3
20260904163018 82 331 2.0 3.0 0.00 0.00 0.00 60 1009.4
20260904162018 81 29 1.0 4.0 0.00 0.00 0.00 60 1009.5
20260904161018 80 1 1.0 2.0 0.00 0.00 0.00 63 1009.5
20260904160019 80 337 1.0 3.0 0.00 0.00 0.00 66 1009.7
20260904155019 81 1 1.0 3.0 0.00 0.00 0.00 64 1009.8
20260904154018 81 2 1.0 3.0 0.00 0.00 0.00 63 1009.8
20260904153018 80 80 1.0 4.0 0.00 0.00 0.00 66 1009.9
20260904152019 79 320 1.0 3.0 0.00 0.00 0.00 68 1010.0
20260904151039 78 271 2.0 4.0 0.00 0.00 0.00 69 1010.0
20260904150019 78 263 1.0 3.0 0.00 0.00 0.00 70 1010.0
20260904145020 77 332 1.0 5.0 0.00 0.00 0.00 71 1010.1
20260904144019 77 339 1.0 2.0 0.00 0.00 0.00 72 1010.1
20260904143019 76 348 1.0 3.0 0.00 0.00 0.00 74 1010.3
20260904142019 75 43 1.0 3.0 0.00 0.00 0.00 76 1010.2
20260904141016 75 6 0.0 2.0 0.00 0.00 0.00 77 1010.3
20260904140017 73 345 1.0 2.0 0.00 0.00 0.00 80 1010.4
20260904135020 72 357 0.0 2.0 0.00 0.00 0.00 82 1010.3
20260904134020 71 210 1.0 3.0 0.00 0.00 0.00 87 1010.3
20260904133020 70 200 1.0 3.0 0.00 0.00 0.00 91 1010.2
20260904132017 68 54 0.0 2.0 0.00 0.00 0.00 95 1010.3
20260904131017 67 32 0.0 1.0 0.00 0.00 0.00 98 1010.4
20260904130026 66 86 0.0 2.0 0.00 0.00 0.00 98 1010.5
20260904125046 66 174 1.0 1.0 0.00 0.00 0.00 98 1010.5
20260904124047 65 190 0.0 1.0 0.00 0.00 0.00 98 1010.6
20260904123027 65 120 0.0 1.0 0.00 0.00 0.00 99 1010.5
20260904122027 65 90 0.0 1.0 0.00 0.00 0.00 98 1010.6
20260904121027 65 128 1.0 2.0 0.00 0.00 0.00 98 1010.6
20260904120028 65 184 0.0 1.0 0.00 0.00 0.00 98 1010.5
20260904115027 64 132 1.0 3.0 0.00 0.00 0.00 98 1010.5
20260904114028 64 166 0.0 1.0 0.00 0.00 0.00 98 1010.5
20260904113028 64 119 1.0 1.0 0.00 0.00 0.00 98 1010.4
20260904112027 64 319 0.0 1.0 0.00 0.00 0.00 98 1010.4
20260904111029 64 359 0.0 1.0 0.00 0.00 0.00 98 1010.4
20260904110028 64 56 0.0 1.0 0.00 0.00 0.00 98 1010.4
20260904105028 64 83 0.0 1.0 0.00 0.00 0.00 98 1010.3
20260904104048 64 0.0 0.0 0.00 0.00 0.00 98 1010.2
20260904103029 64 113 0.0 1.0 0.00 0.00 0.00 98 1010.2
20260904102029 64 146 1.0 2.0 0.00 0.00 0.00 98 1010.1
20260904101030 65 124 1.0 1.0 0.00 0.00 0.00 98 1010.0
20260904100029 65 193 0.0 1.0 0.00 0.01 0.00 98 1009.9
20260904095050 65 139 1.0 1.0 0.00 0.02 0.00 98 1009.9
20260904094030 65 134 0.0 1.0 0.00 0.02 0.00 98 1010.0
20260904093029 65 139 1.0 2.0 0.00 0.05 0.00 98 1010.0
20260904092029 65 0.0 0.0 0.00 0.05 0.00 98 1010.0
20260904091029 65 100 0.0 1.0 0.00 0.05 0.00 98 1009.9
20260904090030 65 127 1.0 1.0 0.00 0.05 0.00 98 1010.0
20260904085050 65 75 0.0 1.0 0.00 0.05 0.00 98 1009.8
20260904084032 65 135 0.0 1.0 0.00 0.05 0.00 98 1009.9
20260904083029 65 100 0.0 1.0 0.00 0.05 0.00 98 1010.0
20260904082031 65 170 0.0 1.0 0.00 0.05 0.00 98 1010.1
20260904081030 65 100 0.0 1.0 0.00 0.05 0.00 98 1010.2
20260904080030 65 142 0.0 1.0 0.00 0.07 0.00 98 1010.3
20260904075030 65 116 0.0 1.0 0.00 0.07 0.00 98 1010.3
20260904074030 65 126 0.0 1.0 0.00 0.07 0.00 98 1010.4
20260904073051 65 123 0.0 1.0 0.00 0.07 0.00 98 1010.3
20260904072031 65 194 0.0 1.0 0.00 0.07 0.00 98 1010.6
20260904071031 65 140 0.0 1.0 0.00 0.07 0.00 98 1010.3
20260904070031 65 0.0 0.0 0.00 0.07 0.00 98 1010.4
20260904065032 65 161 0.0 1.0 0.00 0.07 0.00 98 1010.4
20260904064032 65 165 0.0 1.0 0.00 0.07 0.00 98 1010.4
20260904063031 65 163 0.0 1.0 0.00 0.07 0.00 97 1010.5
20260904062057 65 212 1.0 2.0 0.00 0.07 0.00 98 1010.6
20260904061037 65 164 0.0 1.0 0.00 0.07 0.00 97 1010.7
20260904060057 65 154 0.0 1.0 0.00 0.07 0.00 97 1010.9
20260904055017 65 166 0.0 1.0 0.00 0.07 0.00 97 1011.1
20260904054017 65 143 0.0 1.0 0.00 0.07 0.00 97 1011.3
20260904053017 64 135 0.0 1.0 0.00 0.07 0.00 97 1011.3
20260904052033 64 143 0.0 1.0 0.00 0.07 0.00 97 1011.4
20260904051033 64 0.0 0.0 0.00 0.07 0.00 97 1011.4
20260904050032 64 0.0 0.0 0.00 0.07 0.00 97 1011.5
20260904045018 64 265 0.0 1.0 0.00 0.07 0.00 97 1011.5
20260904044018 64 186 0.0 2.0 0.00 0.07 0.00 97 1011.5
20260904043018 64 229 1.0 3.0 0.00 0.07 0.00 97 1011.5
20260904042018 65 166 0.0 2.0 0.00 0.07 0.00 97 1011.6
20260904041018 64 115 0.0 1.0 0.00 0.07 0.00 97 1011.6
20260904040019 65 130 0.0 1.0 0.00 0.07 0.00 97 1011.6
20260904035019 65 154 0.0 1.0 0.00 0.07 0.07 97 1011.6
20260904034019 65 122 0.0 1.0 0.00 0.07 0.07 97 1011.7
20260904033039 65 160 0.0 1.0 0.00 0.07 0.07 97 1011.9
20260904032019 65 159 0.0 1.0 0.00 0.07 0.07 97 1011.7
20260904031016 65 149 0.0 1.0 0.00 0.07 0.07 97 1011.7
20260904030019 66 125 0.0 1.0 0.00 0.07 0.07 96 1011.8
20260904025019 66 152 0.0 1.0 0.00 0.07 0.07 96 1011.8
20260904024040 66 167 0.0 1.0 0.00 0.07 0.07 96 1012.0
20260904023017 67 159 0.0 1.0 0.00 0.07 0.07 96 1012.1
20260904022017 67 129 0.0 1.0 0.00 0.07 0.07 96 1012.2
20260904021038 67 145 0.0 1.0 0.00 0.07 0.07 96 1012.3
20260904020041 67 92 0.0 1.0 0.00 0.07 0.07 96 1012.3
20260904015020 67 126 0.0 1.0 0.00 0.07 0.07 96 1012.3
20260904014018 67 133 0.0 1.0 0.00 0.07 0.07 96 1012.3
20260904013018 67 128 1.0 2.0 0.00 0.07 0.07 95 1012.4
20260904012017 68 173 0.0 2.0 0.00 0.07 0.07 95 1012.4
20260904011038 68 92 0.0 1.0 0.00 0.07 0.07 95 1012.4
20260904010101 68 163 0.0 0.0 0.00 0.07 0.07 95 1012.4
20260904005019 68 177 0.0 2.0 0.00 0.07 0.07 95 1012.2
20260904004019 69 138 0.0 3.0 0.00 0.07 0.07 94 1012.1
20260904003039 69 155 0.0 2.0 0.00 0.07 0.07 94 1011.9
20260904002019 69 123 0.0 1.0 0.00 0.07 0.07 94 1011.8
20260904001019 70 112 0.0 3.0 0.00 0.07 0.07 94 1011.8
20260904000059 70 72 0.0 2.0 0.00 0.07 0.07 93 1011.8
20260903235019 70 122 0.0 2.0 0.00 0.07 0.07 93 1011.7
20260903234019 71 124 1.0 2.0 0.00 0.07 0.07 92 1011.5
20260903233020 72 124 0.0 2.0 0.00 0.07 0.07 90 1011.6
20260903232019 73 116 0.0 1.0 0.00 0.07 0.07 89 1011.7
20260903231037 74 91 0.0 0.0 0.00 0.07 0.07 87 1011.8
20260903230019 75 104 0.0 1.0 0.00 0.07 0.07 86 1011.6
20260903225020 76 106 0.0 1.0 0.00 0.07 0.07 84 1011.5
20260903224020 76 82 0.0 1.0 0.00 0.07 0.07 82 1011.5
20260903223017 77 82 0.0 2.0 0.00 0.07 0.07 81 1011.7
20260903222017 77 114 1.0 3.0 0.00 0.07 0.07 78 1012.0
20260903221018 77 59 0.0 2.0 0.00 0.07 0.07 80 1012.1
20260903220021 77 88 0.0 2.0 0.00 0.07 0.07 80 1012.0
20260903215020 76 105 1.0 2.0 0.00 0.07 0.07 80 1011.9
20260903214017 76 27 0.0 1.0 0.00 0.07 0.07 80 1011.9
20260903213018 77 127 1.0 3.0 0.00 0.07 0.07 79 1011.7
20260903212018 78 126 1.0 3.0 0.00 0.07 0.07 76 1011.7
20260903211018 77 286 0.0 1.0 0.00 0.07 0.07 78 1011.8
20260903210039 77 135 1.0 3.0 0.00 0.07 0.07 77 1011.8
20260903205018 77 114 1.0 3.0 0.00 0.07 0.07 77 1011.8
20260903204019 77 119 0.0 2.0 0.00 0.07 0.07 78 1011.9
20260903203019 76 289 1.0 4.0 0.00 0.07 0.07 77 1012.0
20260903202019 76 136 1.0 4.0 0.00 0.07 0.07 77 1012.0
20260903201022 76 152 2.0 6.0 0.00 0.07 0.07 78 1012.0
20260903200019 76 323 1.0 3.0 0.00 0.07 0.07 77 1012.2
20260903195019 76 108 1.0 4.0 0.00 0.07 0.07 78 1012.4
20260903194019 76 97 0.0 3.0 0.00 0.07 0.07 79 1012.6
20260903193019 76 293 2.0 5.0 0.00 0.07 0.07 78 1012.6
20260903192017 74 121 1.0 4.0 0.00 0.07 0.07 81 1012.6
20260903191017 74 127 1.0 4.0 0.00 0.07 0.07 81 1012.6
20260903190200 74 82 1.0 3.0 0.00 0.07 0.07 82 1012.7
20260903185026 73 359 0.0 2.0 0.00 0.07 0.07 84 1012.9
20260903184026 73 153 1.0 2.0 0.00 0.07 0.07 83 1012.9
20260903183026 73 243 0.0 1.0 0.00 0.07 0.07 83 1013.3